www.pogodaiklimat.ru

Погода и климат >> Архив погоды >> Россия >> Мурманская область >> Святой Нос


ПОГОДА в Святом Носе

  • Прогноз погоды в Святом Носе
  • Монитор погоды в Святом Носе

АРХИВ ПОГОДЫ в Святом Носе

Время (UTC), дата Ветер
(напр.,м/с)
 
Видим.   Явления Облачность Т
(С)
Тd
(С)
f
(%)
Тe
(С)
Тes
(С)
Комфортность P
(гПа)
Po
(гПа)
Тmin
(С)
Tmax
(С)
R
(мм)
R24
(мм)
S
(см)
18 14.07 С 2 50 км 10/10 600 м
[Sc]
+5.1 +3.7 91 +2 +2 1013.8 1012.3 +6.7
00 15.07 С 1 50 км в посл. час ливневой дождь 10/10 300 м
[Cb cap]
+5.0 +3.8 92 +4 +4 1014.0 1012.5
03 15.07 С 1 20 км в посл. час ливневой дождь 10/10 300 м
[Cb cap]
+5.5 +4.6 94 +4 +4 1014.3 1012.8 +4.9 1
06 15.07 СВ 2 500 м туман {ливн. осадки} 10/10 300 м
[St]
+5.7 +5.2 97 +3 +3 1014.3 1012.9 +4.9 1
09 15.07 СВ 2 500 м туман 10/10 300 м
[St]
+5.4 +4.7 95 +3 +3 1014.7 1013.2
12 15.07 СВ 2 500 м туман 10/10 300 м
[St]
+5.6 +5.1 97 +3 +3 1014.8 1013.3
15 15.07 СВ 5 500 м туман 10/10 300 м
[St]
+5.5 +4.8 95 +1 +1 1014.8 1013.3
18 15.07 СВ 5 1000 м слаб. ливневой дождь {туман} 10/10 300 м
[Cb cap]
+5.3 +4.4 94 +1 +1 1014.4 1012.9 +6.2 2
21 15.07 СВ 6 4000 м дымка {ливн. осадки} 10/10 300 м
[Cb cap]
+5.4 +4.5 94 0 0 1013.9 1012.4
00 16.07 СВ 4 500 м туман {ливн. осадки} 10/10 300 м
[Cb cap]
+5.4 +4.9 97 +1 +1 1013.1 1011.6
03 16.07 СВ 4 2000 м слаб. ливневой дождь {туман} 10/10 300 м
[Cb cap]
+5.5 +4.8 95 +1 +1 1012.2 1010.7 +5.3 4
06 16.07 СВ 1 4000 м слаб. ливневой дождь {туман} 10/10 300 м
[Cb cap]
+6.0 -6.3 41 +6 +6 1011.9 1010.5 +5.3 3
12 16.07 В 4 10 км слаб. ливневой дождь {туман} 10/8 300 м
[Cb cap Ac und]
+6.5 -6.1 40 +4 +4 1012.1 1010.7
15 16.07 СВ 6 20 км слаб. ливневой дождь 10/8 300 м
[Cb cap Ac und]
+5.8 +4.9 94 +1 +1 1012.4 1010.9 3
18 16.07 СВ 7 10 км слаб. ливневой дождь 10/8 300 м
[Cb cap Ac und]
+5.5 +4.8 95 0 0 1011.0 1009.5 +6.6 3
21 16.07 С 4 10 км слаб. ливневой дождь 10/10 300 м
[Cb cap]
+5.2 +4.3 94 +1 +1 1010.1 1008.6
00 17.07 С 4 20 км в посл. час ливневой дождь 10/8 300 м
[Cb cap Ac und]
+5.5 +4.1 91 +1 +1 1008.5 1007.0
03 17.07 СЗ 5 20 км в посл. час ливневой дождь 10/8 300 м
[Cb cap Ac und]
+6.0 +4.4 89 +2 +2 1007.8 1006.4 +5.2 7
06 17.07 З 7 20 км слаб. ливневой дождь 10/8 300 м
[Cb cap Ac und]
+6.2 -7.8 36 +2 +2 1008.4 1007.0 +5.2 6
09 17.07 З 7 20 км слаб. ливневой дождь 9/8 300 м
[Cb cap Ac As]
+7.6 +6.5 93 +3 +3 1010.0 1008.5
12 17.07 ЮЗ 9-10
{11}
50 км {ливн. осадки} 8/5 300 м
[Cb cap Ac As]
+9.7 -15.1 16 +6 +6 1011.6 1010.2
15 17.07 ЮЗ 6-7
{12}
50 км 9/8 300 м
[Cb cap Ac As]
+9.5 +5.8 78 +6 +6 1013.6 1012.1 0.1
18 17.07 ЮЗ 5 50 км 8/4 300 м
[Cb cap Ac As]
+9.9 -11.8 20 +8 +8 1015.0 1013.6 +10.5 0.1
00 18.07 Ю 3 50 км 9/9 600 м
[Sc]
+9.4 +6.2 80 +7 +7 1018.5 1017.0
03 18.07 Ю 3 50 км 3/3 600 м
[Sc]
+10.6 +6.8 77 +9 +10 1019.2 1017.7 +9.2
06 18.07 В 3 50 км 3/1 600 м
[Sc Ci fib]
+11.4 -7.6 26 +10 +15 1019.9 1018.5 +9.2
12 18.07 В 4 50 км 6/0
[Ci fib]
+8.1 +3.4 72 +5 +10 1021.0 1019.5
15 18.07 ЮВ 4 50 км 3/0
[Ci fib]
+10.2 +5.4 72 +8 +10 1021.2 1019.7
18 18.07 В 2 50 км 3/1 600 м
[Sc Ci fib]
+8.1 +5.3 82 +6 +6 1021.3 1019.8 +12.7
00 19.07 В 3 50 км 4/0
[Ci fib]
+5.5 +3.6 88 +2 +2 1020.9 1019.4
03 19.07 СВ 2 50 км 3/0
[Ci fib]
+7.3 +4.8 84 +5 +7 1020.7 1019.2 +5.3
06 19.07 В 2 50 км 3/0
[Ci fib]
+8.0 -0.2 56 +6 +13 1020.1 1018.6 +5.3
12 19.07 В 5 4000 м дымка 10/10 300 м
[St]
+6.5 +1.8 72 +3 +3 1018.4 1016.9
15 19.07 СВ 4 4000 м дымка 10/10 300 м
[St]
+5.7 +4.3 91 +2 +2 1017.8 1016.3
18 19.07 СВ 3 4000 м слаб. морось 10/10 300 м
[St]
+5.1 -2.6 57 +2 +2 1016.7 1015.3 +8.6 0.0
21 19.07 СВ 3 1000 м слаб. морось 10/10 300 м
[St]
+4.9 -3.1 56 +2 +2 1015.9 1014.5
00 20.07 С 3 1000 м слаб. морось {туман} 10/10 300 м
[St]
+4.4 +4.2 99 +1 +1 1015.6 1014.1
03 20.07 СЗ 2 4000 м слаб. морось 10/10 300 м
[St]
+3.9 -4.8 53 +2 +2 1015.2 1013.8 +3.8 0.0
06 20.07 СЗ 4 1000 м слаб. морось 10/10 300 м
[St]
+4.7 -4.3 52 +1 +1 1014.8 1013.4 +3.8 0.0
09 20.07 С 4 500 м туман 10/10 300 м
[St]
+5.2 +5.0 99 +1 +1 1014.8 1013.3
12 20.07 С 2 1000 м дымка {туман} 9/9 300 м
[St]
+5.1 +4.6 97 +2 +3 1015.3 1013.8
15 20.07 СЗ 2 500 м туман 10/10 300 м
[St]
+4.8 +4.6 99 +2 +2 1015.5 1014.0 0.0
18 20.07 С 1 500 м туман 10/10 300 м
[St]
+4.0 +3.8 99 +2 +2 1015.5 1014.0 +5.6 0.0
00 21.07 В 3 500 м туман 10/10 300 м
[St]
+2.4 +2.1 98 -2 -2 1016.0 1014.5
03 21.07 В 2 2000 м дымка {туман} 6/3 300 м
[St Ci fib]
+4.6 +3.4 92 +2 +3 1016.0 1014.5 +1.7
06 21.07 В 5 50 км {туман} 3/0
[Ci fib]
+7.4 +4.7 83 +3 +7 1016.1 1014.6 +1.7
09 21.07 В 6 50 км 4/1 600 м
[Sc Ci fib]
+8.6 +4.2 74 +5 +8 1016.2 1014.6
12 21.07 В 8-9
{10}
50 км 6/1 600 м
[Cu hum Ci fib]
+7.8 +2.8 71 +3 +4 1016.4 1014.9
15 21.07 В 7-9
{10}
н/о н/о +8.5 +0.3 56 +5 +5 1016.3 1014.9

 

Местоположение метеостанции Святой Нос (Мурманская область, Россия): широта 68.15 долгота 39.77 высота над уровнем моря 12 м.

В архиве по умолчанию представлена погода в Святом Носе за последнюю неделю. Архивные данные за месяц целиком и за предыдущие месяцы, начиная с января 2011 года, Вы можете получить, выбрав интересующий диапазон дат из раскрывающегося списка и нажав кнопку "Ввод!".


*Определитесь, кто Вы:
робот инопланетянин человек

Внимание! Время в таблицах - всемирное. Для получения местного времени необходимо прибавить поправку, которая равна 3 ч.

Смотрите также архив погоды в соседних городах и на ближайших метеорологических станциях:

Погода в Иоканьге (Мурманская область, Россия) (16 км)
Погода в Каневке (Мурманская область, Россия) (114 км)
Погода в Краснощелье (Мурманская область, Россия) (145 км)
Погода в Канином Носе (Ненецкий АО, Россия) (155 км)
Погода в Дальних Зеленцах (Мурманская область, Россия) (185 км)
Погода в Шойне (Ненецкий АО, Россия) (186 км)
Погода в Туманной (Мурманская область, Россия) (187 км)
Погода на Сосновец Острове (Мурманская область, Россия) (190 км)
Погода на Моржовец Острове (Архангельская область, Россия) (197 км)
Погода в Ловозере (Мурманская область, Россия) (198 км)

Пояснения к столбцам:

Ветер - указаны скорость ветра в м/с - средняя за 10 мин, порывы в срок и между сроками (в фигурных скобках) и направление, откуда дует ветер: С - северный, СВ - северо-восточный, В - восточный, ЮВ - юго-восточный, Ю - южный, ЮЗ - юго-западный, З - западный, СЗ - северо-западный.
Видимость - горизонтальная дальность видимости в метрах или километрах. При видимости от 1 до 10 км при отсутствии осадков обычно наблюдается дымка, при ухудшении видимости до 1 км и менее - туман. В сухую погоду видимость может ухудшаться дымом, пылью или мглою.
Явления - указаны атмосферные явления, наблюдавшиеся в срок или в последний час перед сроком; фигурными скобками обозначены явления, наблюдавшиеся между сроками (за 1-3 часа до срока); квадратными скобками обозначены град или гололедные отложения с указанием их диаметра в мм.
Облачность - указаны через наклонную черту общая и нижняя облачность в баллах и высота нижней границы облаков в метрах; квадратными скобками обозначены формы облаков: Ci - перистые, Cs - перисто-слоистые, Cc - перисто-кучевые, Ac - высококучевые, As - высокослоистые, Sc - слоисто-кучевые, Ns - слоисто-дождевые, Cu - кучевые, Cb - кучево-дождевые. Подробнее классификацию облаков см. в Атласе облаков (PDF).
T - Температура воздуха - температура, измеренная на высоте 2 м над землей.
Td - Температура точки росы - температура, при понижении до которой содержащийся в воздухе водяной пар достигнет насыщения.
f - Относительная влажность воздуха - влажноcть воздуха, измеренная на высоте 2 м над землей.
Te - Эффективная температура - температура, которую ощущает одетый по сезону человек в тени. Характеристика душности погоды. При расчете учитывается влияние влажности воздуха и скорости ветра на теплоощущения человека.
Tes - Эффективная температура на солнце - температура, которую ощущает человек, с поправкой на солнечный нагрев. Характеристика знойности погоды. Зависит от высоты солнца над горизонтом, облачности и скорости ветра. Ночью, в пасмурную погоду, а также при ветре 12 м/с и более поправка равна нулю.
P - Атмосферное давление - приведенное к уровню моря атмосферное давление.
Po - Атмосферное давление - измеренное на уровне метеостанции атмосферное давление.
Tmin - Минимальная температура - минимум температуры воздуха на высоте 2 м над землей.
Tmax - Максимальная температура - максимум температуры воздуха на высоте 2 м над землей.
R - Количество осадков - Количество выпавших осадков за период времени, мм. При наведении курсора мыши на число - период времени, за который выпало указанное количество осадков.
R24 - Количество осадков - Количество выпавших осадков за 24 часа, мм.
S - Снежный покров - Высота снежного покрова, см. При наведении курсора мыши на число - состояние снежного покрова и степень покрытия местности в баллах.